Wind_Speed
108 103 101 99 95 85 82 82 80 76 72 65 64 61 57 56 55 52 56 55 52 49 49 46 44 43 43 42 41 39 37 35 33 32 31 32 33 32 33 30 28 31 31 30 27 25 27 25 25
103 111 100 97 93 87 84 86 84 80 73 67 65 62 58 58 54 54 57 55 55 53 51 49 47 44 43 43 43 41 39 38 37 34 34 34 32 31 30 29 29 30 28 29 29 29 28 26 26
104 110 113 105 95 86 88 88 84 84 74 76 70 66 62 58 51 52 50 52 54 52 53 51 51 48 44 43 42 41 42 41 40 36 35 34 32 32 30 31 29 29 29 29 28 27 26 27 28
103 107 115 109 104 85 90 96 92 86 82 77 75 70 63 63 62 56 50 48 48 48 50 51 50 48 45 42 40 40 40 40 40 38 36 36 33 33 30 32 32 31 29 28 27 29 30 31 30
101 105 107 109 107 102 104 97 83 87 85 82 75 72 69 66 66 59 53 50 48 47 47 48 47 47 46 42 40 38 36 37 38 37 37 35 33 33 32 33 33 31 30 28 29 31 32 32 32
101 100 103 104 110 106 113 95 91 91 89 83 78 77 74 72 69 67 58 54 50 48 48 47 45 45 44 43 41 40 38 36 36 37 37 35 35 34 33 35 34 32 32 30 32 33 34 34 35
98 98 98 103 113 114 114 99 92 95 93 88 82 79 77 73 73 69 63 57 54 50 48 48 47 46 45 43 40 40 40 38 38 37 38 37 37 36 34 35 33 33 34 35 36 36 36 36 38
100 100 101 106 111 119 114 107 106 99 96 90 88 81 78 72 64 75 67 62 62 56 52 49 47 48 46 45 42 42 41 40 39 38 40 39 38 36 35 35 34 34 35 36 38 38 38 38 40
103 101 100 103 112 111 106 103 106 105 97 94 90 85 81 87 80 70 68 66 64 60 54 51 48 47 46 44 44 44 42 41 41 41 41 41 40 37 36 36 35 36 37 37 38 38 39 41 42
104 99 99 104 106 107 103 104 108 106 103 99 92 87 86 82 83 77 74 69 68 64 58 53 50 48 48 46 46 44 42 41 42 42 43 42 42 40 38 38 37 37 38 39 39 39 41 41 42
98 101 106 109 106 108 104 100 105 109 108 98 92 92 87 84 82 77 76 71 70 65 63 58 56 51 51 49 47 45 44 43 42 43 43 43 42 41 40 38 38 38 38 40 40 41 41 42 43
94 102 109 106 105 106 105 102 108 109 105 100 97 94 96 89 82 81 81 74 71 69 66 63 59 57 53 51 50 49 46 44 41 41 43 42 43 42 42 41 40 40 40 40 41 42 42 44 45
91 103 107 104 105 105 104 104 108 106 105 102 100 96 91 95 88 80 80 75 73 70 65 67 64 61 57 54 50 50 48 47 45 43 42 41 43 45 45 44 43 44 45 44 45 45 46 46 48
94 101 105 105 108 103 100 106 106 105 106 107 104 101 94 86 89 81 76 72 74 75 75 65 66 65 61 58 56 54 52 50 50 48 46 44 45 47 47 47 47 47 47 47 47 48 49 50 51
92 98 103 109 101 101 100 104 106 106 105 109 112 106 103 95 87 87 81 76 73 72 73 76 63 62 65 63 60 58 56 55 52 53 52 51 50 50 50 50 50 50 51 50 51 52 52 53 55
91 95 104 106 104 102 101 102 104 106 107 110 111 110 106 101 96 90 77 75 72 74 76 75 73 73 70 68 66 63 60 58 56 55 55 55 56 56 55 54 54 53 54 54 55 55 55 57 58
88 93 99 101 102 102 101 100 103 106 106 112 107 107 108 107 99 96 91 80 80 82 77 72 75 78 76 72 68 66 65 63 62 59 59 59 61 60 59 59 58 57 58 58 58 58 59 61 62
84 87 96 99 101 103 102 101 102 105 105 107 114 111 109 106 104 98 96 92 90 79 82 81 76 75 75 75 72 70 68 66 64 64 64 61 61 62 63 62 62 62 62 62 62 63 63 65 67
88 92 97 99 99 100 99 99 95 100 101 104 110 109 108 108 108 104 99 93 93 90 84 86 82 82 79 76 73 73 71 68 65 63 61 60 60 60 60 60 60 62 64 66 68 69 68 68 68
85 89 93 100 100 99 97 100 93 94 97 100 104 112 112 108 108 107 106 100 95 92 92 84 84 84 84 82 77 75 72 74 70 67 64 67 66 64 64 65 65 66 66 66 64 66 64 64 64
80 85 88 94 96 98 102 99 86 85 94 95 96 105 115 113 109 106 108 107 102 98 95 93 93 91 84 76 80 79 74 75 74 75 75 69 66 67 68 67 67 68 70 70 66 65 65 64 66
73 80 87 91 96 99 99 95 88 88 88 89 93 102 105 112 112 109 107 107 106 105 102 98 93 92 90 87 81 81 77 77 76 77 75 74 73 72 72 74 71 71 72 72 70 70 70 70 73
75 79 83 88 94 96 93 87 86 83 82 88 93 95 103 107 111 110 110 107 107 108 106 105 101 96 95 93 91 91 89 87 84 81 78 75 76 74 72 75 75 74 75 77 75 75 77 81 84
71 76 81 85 88 86 83 83 85 83 84 86 92 92 96 102 106 110 106 108 110 109 108 107 105 103 101 98 96 95 93 92 91 90 88 85 83 78 78 79 80 79 80 81 80 82 85 88 88
68 73 77 81 80 78 78 78 86 81 83 85 87 91 93 98 104 108 106 106 108 109 110 111 109 107 105 103 101 100 99 98 96 96 94 93 91 90 88 84 83 83 84 85 88 88 88 90 91
63 67 74 74 75 75 79 78 81 82 84 86 88 88 91 93 98 103 104 106 108 108 108 110 111 111 109 108 107 105 104 103 102 102 101 99 98 97 96 95 93 93 93 93 93 94 94 95 97
61 63 65 69 72 74 75 76 77 82 86 87 86 86 88 92 92 95 98 101 103 106 106 107 108 109 110 111 111 111 110 109 108 108 106 105 104 102 101 100 99 99 100 100 100 99 100 100 102
56 59 61 63 67 70 73 75 75 81 83 85 86 85 86 89 89 91 95 98 100 101 105 106 107 108 109 110 111 113 113 114 113 112 111 110 109 107 105 104 103 104 104 104 104 105 105 105 107
51 52 54 58 62 67 69 70 72 78 80 82 83 85 86 86 86 89 91 91 94 100 101 103 105 107 108 108 110 112 113 115 115 114 114 114 113 111 111 110 109 109 109 110 110 112 112 112 112
45 49 54 55 59 62 63 66 67 73 77 80 81 83 84 87 88 88 89 91 94 96 100 102 105 107 108 109 109 109 112 114 115 116 116 115 113 114 114 114 114 113 115 115 114 115 115 117 117
Wind_Direction
218 216 220 222 222 220 220 222 222 223 221 220 221 222 224 228 228 228 230 230 232 236 239 241 243 246 248 251 253 257 260 262 262 266 269 271 274 277 283 280 280 282 282 282 279 279 283 278 283
218 216 214 218 218 219 219 222 222 224 220 219 218 220 222 226 225 225 230 231 234 237 239 242 245 248 250 252 254 256 258 260 262 263 267 270 273 276 280 276 279 279 280 279 278 280 272 275 281
218 217 215 216 216 216 220 221 221 224 220 219 218 219 224 229 231 231 231 232 234 238 239 242 245 246 248 251 254 257 259 260 263 263 266 269 271 276 275 275 277 279 277 279 274 273 277 277 278
218 219 217 216 217 214 219 219 217 225 222 222 220 221 225 228 233 230 229 230 234 239 239 240 242 244 246 248 254 260 258 260 262 265 265 268 269 275 273 276 279 275 276 270 272 275 277 276 276
218 218 218 215 219 218 219 218 216 224 224 224 220 221 225 229 232 231 230 233 236 238 238 239 242 245 245 248 256 259 258 259 261 265 266 267 271 271 274 274 276 274 274 270 271 270 273 273 276
218 218 218 215 216 222 221 216 215 221 225 227 226 223 224 228 226 230 230 233 236 238 238 239 242 244 246 252 254 256 256 259 263 263 264 266 269 270 273 275 275 273 271 268 269 271 272 273 275
219 218 216 215 216 220 222 213 215 220 223 224 226 225 226 232 232 232 231 232 235 235 238 238 239 242 246 250 253 258 259 260 263 264 264 266 267 269 269 274 270 272 271 268 269 270 270 271 276
218 219 215 214 216 219 220 221 220 221 221 223 225 225 227 226 230 230 230 232 235 236 236 239 240 242 244 249 252 256 258 260 262 263 264 265 265 267 268 272 269 271 271 270 271 274 274 274 277
219 218 218 214 216 218 216 216 219 218 219 220 223 222 225 226 229 231 230 231 235 236 238 237 240 242 243 244 250 254 256 259 261 262 264 264 265 266 268 271 270 271 272 273 274 274 276 276 280
218 219 217 214 215 217 217 214 218 217 217 219 221 222 222 225 230 230 233 232 234 235 236 239 240 243 243 245 251 252 255 260 260 261 263 264 264 266 267 268 270 272 274 275 273 273 275 278 282
217 216 216 216 214 215 214 214 217 217 216 218 222 225 225 225 228 232 235 234 233 236 237 237 240 242 244 246 249 252 256 259 260 260 261 262 263 264 266 268 268 273 274 274 273 275 277 280 284
215 216 216 217 217 215 214 213 215 219 214 216 218 226 226 227 227 232 234 233 235 235 238 238 239 242 244 245 247 252 254 258 261 260 259 259 261 263 266 267 271 274 276 276 274 277 278 282 284
213 215 216 218 217 217 213 214 216 217 215 214 216 218 226 227 228 230 235 236 235 237 238 242 241 243 242 245 247 251 253 256 259 259 259 260 260 261 265 267 269 273 275 275 277 279 281 283 285
211 213 214 217 218 216 214 215 217 215 220 216 216 218 220 225 229 229 231 234 239 238 239 239 242 242 243 246 247 249 253 256 257 259 260 261 261 262 263 266 269 271 272 273 275 278 280 282 284
210 210 214 216 218 218 215 214 216 215 212 220 217 216 218 221 225 229 228 230 233 236 238 239 241 242 245 246 247 249 251 255 257 258 261 263 264 262 264 266 267 269 271 274 276 277 279 282 284
210 209 212 214 216 218 218 216 216 217 215 218 222 218 219 221 224 226 230 230 227 232 236 240 243 243 245 247 249 250 252 253 256 258 260 262 263 263 264 265 268 270 272 275 277 279 281 282 285
210 209 211 215 215 217 219 217 216 217 217 218 222 222 220 222 224 226 227 228 231 235 239 240 244 245 245 247 250 251 253 254 255 256 259 261 263 264 265 267 269 272 274 276 276 279 281 283 285
209 209 212 215 215 218 219 218 215 218 217 217 218 225 222 223 223 226 230 230 233 231 234 238 240 246 246 247 249 251 252 252 253 255 257 258 261 263 265 267 268 270 273 274 275 278 280 283 286
206 206 209 213 216 218 221 223 217 219 217 220 220 221 228 223 224 225 227 230 234 234 235 237 241 243 248 249 248 249 250 251 253 253 255 258 262 262 262 264 267 270 273 276 278 281 283 286 290
205 208 208 213 215 219 220 224 219 218 221 221 221 221 225 228 226 226 228 229 232 236 238 238 243 246 247 249 251 251 252 253 253 254 253 254 257 259 262 265 267 268 271 274 277 279 283 284 286
205 207 209 213 215 218 220 223 222 219 222 223 222 222 224 227 230 228 229 231 232 234 239 242 244 245 245 248 249 249 249 253 254 253 255 256 258 261 262 265 269 273 273 275 277 278 279 279 283
206 207 209 213 216 218 222 224 224 221 220 223 224 224 226 228 230 232 232 232 233 235 237 239 242 246 249 249 249 249 249 250 252 256 258 260 262 265 267 268 268 271 274 275 276 276 277 282 286
205 206 212 214 215 221 225 224 225 225 223 224 226 225 226 228 230 232 232 234 235 236 238 240 241 243 246 248 252 254 254 253 252 253 254 260 264 266 268 270 269 272 272 273 274 275 279 281 283
208 208 212 215 218 221 225 225 228 226 226 225 226 227 226 228 231 233 234 234 236 237 239 241 243 244 245 247 249 251 253 254 255 255 255 255 256 258 262 263 263 266 270 271 272 276 279 281 284
208 209 214 217 220 221 224 225 228 226 229 229 229 229 229 228 230 233 234 235 237 239 240 241 243 245 246 247 248 249 251 252 253 255 256 258 259 260 261 260 262 264 267 269 271 274 277 279 279
210 212 214 218 221 221 223 222 226 227 227 229 230 230 229 231 232 233 235 234 236 239 240 241 242 244 245 247 248 249 251 252 253 254 256 257 258 259 261 261 262 263 265 267 269 272 274 277 279
213 214 216 219 221 224 225 224 224 227 229 230 231 231 231 232 232 234 237 238 237 239 242 243 245 246 247 248 249 251 251 253 254 255 257 258 259 260 260 262 263 265 267 268 271 272 274 276 278
214 216 218 221 223 225 226 226 225 228 230 232 233 233 234 234 234 235 236 237 239 240 241 243 245 247 248 250 250 251 252 253 254 256 257 259 260 261 261 262 264 266 268 269 271 272 274 275 277
215 217 219 222 224 227 228 229 227 229 232 233 235 236 236 238 238 237 237 238 240 242 242 243 244 246 247 248 250 252 253 254 254 256 257 259 260 261 262 263 264 266 268 269 271 271 273 275 277
219 220 222 224 226 228 228 229 229 232 233 235 235 236 237 238 240 240 240 240 239 241 243 243 245 246 247 248 250 252 253 255 257 258 258 259 261 262 263 264 265 267 267 269 272 273 275 275 277
Height
10723 10735 10746 10756 10770 10792 10805 10811 10818 10826 10836 10846 10850 10857 10861 10867 10875 10883 10883 10888 10893 10897 10902 10906 10910 10912 10915 10917 10920 10923 10925 10927 10928 10929 10930 10931 10932 10932 10933 10933 10932 10932 10931 10930 10929 10929 10929 10927 10927
10706 10721 10731 10741 10762 10782 10797 10799 10810 10817 10833 10840 10843 10849 10855 10858 10867 10871 10876 10883 10888 10892 10896 10901 10904 10908 10911 10913 10916 10919 10921 10923 10924 10925 10927 10927 10928 10928 10929 10929 10929 10928 10927 10926 10925 10925 10924 10923 10923
10690 10701 10714 10731 10751 10774 10786 10788 10803 10805 10824 10825 10834 10842 10850 10858 10863 10868 10873 10878 10882 10887 10891 10895 10898 10902 10905 10909 10911 10914 10917 10919 10920 10921 10922 10923 10924 10925 10925 10925 10925 10924 10923 10922 10921 10921 10920 10920 10919
10674 10684 10702 10723 10745 10767 10769 10764 10780 10799 10808 10818 10829 10840 10847 10854 10854 10861 10867 10872 10877 10881 10885 10889 10893 10897 10900 10903 10906 10909 10912 10914 10916 10917 10918 10918 10919 10920 10920 10920 10920 10919 10918 10918 10918 10917 10916 10915 10914
10656 10672 10688 10714 10740 10749 10736 10756 10791 10788 10795 10806 10824 10835 10843 10846 10849 10854 10862 10867 10873 10876 10880 10884 10888 10891 10895 10898 10902 10905 10907 10909 10911 10912 10913 10913 10915 10915 10915 10915 10915 10915 10914 10914 10913 10912 10911 10910 10909
10644 10658 10678 10706 10729 10726 10718 10760 10773 10777 10788 10803 10815 10822 10826 10831 10838 10845 10854 10862 10868 10872 10875 10879 10883 10886 10890 10893 10896 10899 10901 10903 10905 10907 10908 10908 10909 10910 10911 10910 10910 10910 10909 10908 10908 10907 10906 10905 10904
10638 10650 10673 10693 10702 10698 10719 10752 10758 10766 10777 10790 10802 10811 10822 10828 10833 10840 10847 10856 10858 10864 10868 10873 10877 10881 10884 10888 10890 10893 10896 10898 10900 10901 10902 10903 10904 10904 10905 10905 10905 10904 10904 10903 10902 10902 10901 10900 10899
10623 10636 10653 10670 10678 10682 10712 10735 10749 10755 10770 10786 10789 10804 10815 10818 10819 10829 10839 10849 10849 10857 10861 10866 10871 10875 10879 10882 10885 10887 10889 10892 10894 10895 10896 10897 10898 10899 10900 10900 10899 10899 10899 10898 10897 10897 10896 10895 10894
10606 10621 10642 10658 10660 10675 10710 10719 10727 10739 10758 10768 10777 10793 10799 10802 10813 10822 10829 10840 10842 10849 10855 10860 10865 10869 10873 10876 10878 10881 10884 10886 10888 10889 10890 10891 10892 10894 10894 10894 10893 10893 10893 10893 10892 10891 10890 10889 10888
10590 10612 10634 10642 10655 10671 10693 10701 10709 10727 10743 10750 10768 10781 10786 10795 10802 10815 10819 10831 10833 10841 10848 10854 10861 10864 10866 10870 10872 10876 10878 10880 10881 10883 10884 10884 10886 10887 10887 10887 10887 10887 10887 10887 10886 10885 10884 10883 10881
10579 10600 10613 10615 10636 10651 10671 10693 10695 10709 10726 10754 10763 10769 10777 10787 10793 10803 10811 10823 10827 10836 10842 10848 10852 10857 10859 10863 10865 10869 10872 10874 10875 10877 10877 10878 10879 10880 10880 10880 10880 10881 10880 10880 10879 10878 10878 10877 10875
10567 10586 10593 10605 10624 10642 10662 10674 10678 10694 10724 10738 10750 10756 10767 10777 10787 10793 10802 10813 10820 10829 10834 10841 10844 10849 10852 10855 10858 10862 10865 10867 10869 10870 10871 10871 10873 10873 10873 10873 10873 10873 10874 10874 10873 10872 10871 10870 10868
10554 10569 10583 10598 10611 10625 10646 10658 10666 10688 10708 10723 10735 10746 10754 10767 10779 10791 10794 10804 10812 10820 10827 10832 10835 10840 10844 10847 10851 10854 10857 10860 10862 10864 10865 10865 10867 10867 10867 10866 10866 10866 10866 10866 10865 10864 10863 10862 10861
10539 10554 10570 10583 10596 10612 10635 10646 10660 10681 10695 10708 10720 10734 10745 10755 10767 10781 10789 10796 10801 10809 10815 10822 10826 10831 10836 10838 10842 10845 10849 10852 10855 10857 10858 10859 10860 10859 10859 10859 10860 10860 10860 10858 10857 10857 10856 10854 10852
10523 10543 10557 10568 10587 10604 10620 10629 10646 10661 10681 10684 10699 10716 10731 10744 10755 10767 10777 10785 10791 10796 10804 10812 10817 10823 10824 10828 10832 10836 10839 10843 10846 10849 10851 10852 10851 10851 10851 10852 10851 10851 10851 10851 10850 10848 10847 10845 10843
10513 10531 10543 10558 10571 10587 10601 10620 10634 10648 10667 10669 10681 10704 10721 10734 10744 10755 10764 10774 10780 10786 10794 10802 10810 10813 10815 10820 10823 10826 10830 10834 10837 10840 10841 10842 10842 10842 10843 10843 10842 10842 10841 10841 10840 10838 10837 10835 10833
10506 10524 10536 10546 10566 10577 10590 10608 10619 10634 10651 10667 10677 10693 10706 10720 10733 10743 10752 10759 10769 10778 10787 10794 10797 10801 10807 10812 10814 10817 10821 10824 10827 10829 10830 10831 10830 10832 10832 10833 10833 10832 10831 10830 10829 10828 10826 10824 10822
10504 10523 10530 10541 10557 10568 10578 10589 10606 10620 10640 10655 10663 10675 10692 10709 10720 10732 10739 10748 10756 10765 10773 10779 10786 10791 10796 10801 10806 10807 10809 10813 10816 10817 10818 10818 10820 10820 10821 10822 10822 10822 10820 10819 10818 10817 10815 10813 10811
10489 10503 10518 10530 10547 10557 10570 10578 10599 10612 10630 10643 10656 10668 10680 10696 10705 10718 10726 10736 10743 10752 10760 10765 10773 10778 10783 10788 10793 10797 10800 10802 10804 10805 10806 10807 10808 10810 10809 10810 10811 10811 10809 10808 10807 10806 10804 10802 10800
10483 10495 10508 10517 10533 10549 10562 10570 10589 10610 10620 10630 10645 10658 10668 10677 10692 10705 10712 10722 10731 10739 10745 10753 10758 10766 10772 10775 10781 10786 10787 10790 10793 10794 10793 10794 10798 10799 10799 10799 10799 10799 10798 10796 10795 10794 10792 10790 10785
10479 10493 10509 10519 10532 10538 10542 10560 10584 10602 10609 10621 10637 10647 10653 10664 10675 10691 10698 10708 10717 10726 10730 10738 10744 10751 10756 10760 10766 10770 10776 10777 10779 10781 10780 10783 10787 10786 10787 10787 10787 10787 10787 10784 10782 10781 10779 10778 10771
10479 10491 10500 10511 10521 10525 10536 10554 10571 10583 10601 10615 10624 10633 10644 10653 10664 10676 10684 10693 10703 10710 10715 10722 10729 10735 10741 10747 10750 10757 10760 10764 10766 10768 10770 10771 10773 10773 10774 10775 10774 10774 10773 10771 10769 10767 10765 10765 10761
10470 10484 10494 10502 10513 10519 10533 10554 10564 10581 10595 10603 10610 10621 10630 10637 10647 10658 10671 10680 10688 10697 10701 10707 10714 10721 10725 10731 10735 10739 10745 10748 10750 10753 10756 10757 10758 10759 10761 10761 10760 10760 10758 10756 10755 10753 10751 10750 10748
10468 10480 10486 10493 10503 10518 10532 10547 10555 10572 10579 10589 10596 10606 10618 10628 10636 10644 10657 10668 10671 10680 10686 10692 10699 10706 10710 10715 10720 10723 10728 10730 10734 10737 10739 10741 10741 10742 10743 10742 10744 10744 10743 10742 10741 10738 10737 10735 10733
10462 10474 10482 10490 10502 10519 10528 10542 10546 10565 10570 10576 10585 10594 10604 10612 10620 10628 10642 10656 10658 10663 10671 10675 10681 10687 10692 10697 10701 10705 10708 10711 10716 10718 10721 10725 10728 10728 10726 10728 10729 10728 10727 10727 10725 10723 10722 10720 10717
10459 10467 10474 10486 10499 10510 10518 10530 10538 10548 10554 10559 10566 10578 10589 10600 10607 10615 10625 10636 10641 10644 10652 10656 10662 10667 10672 10677 10681 10685 10689 10693 10696 10698 10701 10706 10709 10710 10710 10710 10711 10711 10711 10710 10709 10708 10706 10703 10699
10456 10465 10476 10483 10491 10501 10510 10519 10529 10532 10538 10546 10557 10566 10576 10584 10594 10603 10612 10620 10624 10631 10635 10640 10646 10651 10655 10658 10663 10667 10670 10673 10675 10678 10683 10686 10688 10691 10692 10692 10693 10693 10693 10693 10692 10690 10688 10685 10681
10451 10460 10468 10476 10483 10491 10498 10505 10518 10520 10527 10534 10545 10554 10562 10570 10580 10587 10593 10600 10607 10614 10616 10622 10627 10632 10635 10638 10644 10646 10648 10650 10654 10658 10662 10665 10668 10670 10672 10673 10675 10675 10674 10674 10674 10671 10670 10668 10663
10449 10457 10465 10470 10476 10481 10489 10499 10509 10511 10517 10524 10533 10542 10550 10558 10566 10573 10578 10585 10592 10593 10599 10603 10607 10610 10613 10618 10621 10624 10627 10628 10632 10637 10640 10642 10646 10649 10651 10653 10655 10656 10655 10654 10653 10649 10649 10649 10645
10445 10450 10455 10462 10467 10473 10481 10489 10497 10499 10504 10511 10519 10527 10537 10544 10548 10554 10560 10564 10572 10575 10577 10583 10588 10590 10593 10596 10601 10605 10607 10609 10611 10613 10616 10620 10624 10627 10629 10632 10634 10635 10633 10633 10634 10630 10630 10628 10625